EW2108 Weather Reports


Display with metric or nautical units.
time (UTC)temp
F
wind
direction
speed
MPH
gust
MPH
rain 1hr
in
rain 24hr
in
rain mn
in
humidity
%
barometer
mb
20190218113037 74 51 0.0 2.0 0.00 0.00 0.00 81 1006.6
20190218111537 74 51 0.0 3.0 0.00 0.00 0.00 81 1006.7
20190218104604 75 44 0.0 2.0 0.00 0.00 0.00 80 1006.7
20190218103034 75 44 0.0 3.0 0.00 0.00 0.00 80 1006.7
20190218101540 75 88 1.0 4.0 0.00 0.00 0.00 80 1006.4
20190218100057 75 89 2.0 5.0 0.00 0.00 0.00 80 1006.4
20190218094531 75 55 1.0 5.0 0.00 0.00 0.00 81 1006.4
20190218093039 75 82 3.0 9.0 0.00 0.00 0.00 81 1006.2
20190218091552 75 26 3.0 9.0 0.00 0.00 0.00 81 1006.1
20190218090056 75 355 3.0 8.0 0.00 0.00 0.00 80 1005.9
20190218084527 76 28 3.0 8.0 0.00 0.00 0.00 79 1005.7
20190218083044 77 21 4.0 10.0 0.00 0.00 0.00 77 1005.6
20190218081600 78 41 3.0 9.0 0.00 0.00 0.00 75 1005.5
20190218080021 78 22 2.0 8.0 0.00 0.00 0.00 74 1005.4
20190218074532 79 5 2.0 6.0 0.00 0.00 0.00 73 1005.3
20190218073100 80 72 1.0 5.0 0.00 0.00 0.00 72 1005.4
20190218071535 81 65 2.0 5.0 0.00 0.00 0.00 70 1005.4
20190218070025 81 85 3.0 9.0 0.00 0.00 0.00 68 1005.5
20190218064516 82 72 4.0 8.0 0.00 0.00 0.00 68 1005.5
20190218063021 82 65 4.0 9.0 0.00 0.00 0.00 66 1005.7
20190218061516 83 78 4.0 9.0 0.00 0.00 0.00 65 1005.7
20190218060016 83 77 5.0 9.0 0.00 0.00 0.00 64 1005.7
20190218054508 83 55 5.0 9.0 0.00 0.00 0.00 64 1005.9
20190218051656 84 97 4.0 10.0 0.00 0.00 0.00 62 1006.1
20190218050227 85 98 4.0 9.0 0.00 0.00 0.00 61 1006.3
20190218044745 86 94 4.0 8.0 0.00 0.00 0.00 59 1006.6
20190218043156 86 98 4.0 7.0 0.00 0.00 0.00 58 1006.9
20190218041711 87 95 4.0 9.0 0.00 0.00 0.00 57 1007.0
20190218040123 87 94 3.0 7.0 0.00 0.00 0.00 58 1007.3
20190218034648 87 92 2.0 7.0 0.00 0.00 0.00 57 1007.5
20190218033101 87 88 3.0 8.0 0.00 0.00 0.00 55 1007.7
20190218031620 88 78 2.0 8.0 0.00 0.00 0.00 55 1008.1
20190218030048 88 98 3.0 8.0 0.00 0.00 0.00 53 1008.4
20190218024606 88 99 3.0 7.0 0.00 0.00 0.00 54 1008.6
20190218023052 87 98 2.0 6.0 0.00 0.00 0.00 56 1008.8
20190218021535 87 94 3.0 6.0 0.00 0.00 0.00 56 1009.2
20190218020057 87 98 2.0 6.0 0.00 0.00 0.00 57 1009.3
20190218014606 87 90 3.0 6.0 0.00 0.00 0.00 57 1009.4
20190218013036 87 90 2.0 4.0 0.00 0.00 0.00 56 1009.6
20190218011554 86 90 2.0 4.0 0.00 0.00 0.00 56 1009.8
20190218010028 86 90 2.0 6.0 0.00 0.00 0.00 57 1010.0
20190218004535 87 82 2.0 5.0 0.00 0.00 0.00 55 1010.3
20190218003007 87 16 1.0 5.0 0.00 0.00 0.00 59 1010.4
20190218001504 86 23 1.0 4.0 0.00 0.00 0.00 59 1010.6
20190218000254 85 33 1.0 4.0 0.00 0.00 0.00 61 1010.8
20190217234655 84 355 1.0 5.0 0.00 0.00 0.00 62 1010.9
20190217233108 83 360 1.0 3.0 0.00 0.00 0.00 65 1010.8
20190217231529 81 360 1.0 4.0 0.00 0.00 0.00 66 1010.8
20190217230045 80 5 1.0 4.0 0.00 0.00 0.00 68 1011.0
20190217224509 79 360 1.0 4.0 0.00 0.00 0.00 71 1011.0
20190217223002 76 348 2.0 4.0 0.00 0.00 0.00 75 1010.9
20190217221716 75 41 1.0 3.0 0.00 0.00 0.00 78 1011.0
20190217221616 75 41 1.0 3.0 0.00 0.00 0.00 77 1011.0
20190217220140 73 36 2.0 3.0 0.00 0.00 0.00 80 1011.0
20190217220051 73 36 2.0 3.0 0.00 0.00 0.00 80 1011.0
20190217214653 72 49 2.0 4.0 0.00 0.00 0.00 83 1011.0
20190217213108 71 32 0.0 1.0 0.00 0.00 0.00 85 1011.0
20190217211720 71 52 1.0 6.0 0.00 0.00 0.00 87 1011.1
20190217210137 70 160 0.0 1.0 0.00 0.00 0.00 90 1011.0
20190217203105 68 160 2.0 5.0 0.00 0.00 0.00 94 1010.9
20190217201548 68 252 0.0 2.0 0.00 0.00 0.00 94 1010.8
20190217200026 67 252 0.0 1.0 0.00 0.00 0.00 94 1010.6
20190217193022 67 252 0.0 0.0 0.00 0.00 0.00 93 1010.2
20190217191519 67 252 0.0 1.0 0.00 0.00 0.00 93 1010.1
20190217190023 67 19 1.0 3.0 0.00 0.00 0.00 93 1009.9
20190217184526 67 19 0.0 1.0 0.00 0.00 0.00 91 1009.9
20190217183010 67 19 0.0 1.0 0.00 0.00 0.00 91 1009.9
20190217181505 68 19 1.0 2.0 0.00 0.00 0.00 90 1009.9
20190217174659 69 23 0.0 2.0 0.00 0.00 0.00 89 1010.0
20190217173202 69 49 0.0 5.0 0.00 0.00 0.00 89 1009.8
20190217171646 69 23 0.0 4.0 0.00 0.00 0.00 90 1009.9
20190217171545 69 23 0.0 4.0 0.00 0.00 0.00 90 1009.9
20190217164554 69 14 1.0 4.0 0.00 0.00 0.00 90 1010.0
20190217163044 69 11 1.0 4.0 0.00 0.00 0.00 90 1010.0
20190217161555 69 11 1.0 4.0 0.00 0.00 0.00 90 1010.1
20190217160050 69 11 0.0 5.0 0.00 0.00 0.00 89 1010.1
20190217154537 70 11 0.0 3.0 0.00 0.00 0.00 88 1010.3
20190217153021 70 360 1.0 5.0 0.00 0.00 0.00 88 1010.3
20190217151544 70 24 1.0 5.0 0.00 0.00 0.00 88 1010.5
20190217150022 70 17 0.0 8.0 0.00 0.00 0.00 87 1010.7
20190217144509 70 13 3.0 6.0 0.00 0.00 0.00 87 1010.7
20190217143017 70 26 2.0 6.0 0.00 0.00 0.00 87 1010.9
20190217141538 71 25 1.0 5.0 0.00 0.00 0.00 86 1011.1
20190217140004 71 19 0.0 3.0 0.00 0.00 0.00 85 1011.2
20190217134803 71 34 0.0 4.0 0.00 0.00 0.00 85 1011.5
20190217133146 71 51 0.0 2.0 0.00 0.00 0.00 85 1011.6
20190217131638 71 335 0.0 3.0 0.00 0.00 0.00 84 1011.6
20190217130225 71 18 1.0 4.0 0.00 0.00 0.00 84 1011.7
20190217124718 71 22 0.0 2.0 0.00 0.00 0.00 83 1011.8
20190217123339 71 22 0.0 2.0 0.00 0.00 0.00 83 1011.9
20190217121735 72 40 0.0 2.0 0.00 0.00 0.00 82 1011.9
20190217120159 72 5 1.0 5.0 0.00 0.00 0.00 82 1012.0